Time,TemperatureF,DewpointF,PressureIn,WindDirection,WindDirectionDegrees,WindSpeedMPH,WindSpeedGustMPH,Humidity,HourlyPrecipIn,Conditions,Clouds,dailyrainin,SoftwareType,DateUTC
2013-04-15 00:05:00,67.0,50.8,29.61,South,176,7.0,11.0,56,0.00,,,0.00,Wunderground v.1.15,2013-04-15 05:05:00,
2013-04-15 00:10:00,67.0,50.8,29.61,SSW,193,6.0,9.0,56,0.00,,,0.00,Wunderground v.1.15,2013-04-15 05:10:00,
2013-04-15 00:16:00,66.8,51.1,29.62,South,181,7.0,9.0,57,0.00,,,0.00,Wunderground v.1.15,2013-04-15 05:16:00,
2013-04-15 00:21:00,66.7,51.0,29.62,South,182,6.0,8.0,57,0.00,,,0.00,Wunderground v.1.15,2013-04-15 05:21:00,
2013-04-15 00:27:00,66.6,50.9,29.63,SSW,199,7.0,9.0,57,0.00,,,0.00,Wunderground v.1.15,2013-04-15 05:27:00,
2013-04-15 00:32:00,66.4,51.2,29.63,SSE,168,6.0,6.0,58,0.00,,,0.00,Wunderground v.1.15,2013-04-15 05:32:00,
2013-04-15 00:38:00,66.3,51.1,29.63,SSE,157,5.0,7.0,58,0.00,,,0.00,Wunderground v.1.15,2013-04-15 05:38:00,
2013-04-15 00:43:00,66.3,51.1,29.63,SSE,163,4.0,6.0,58,0.00,,,0.00,Wunderground v.1.15,2013-04-15 05:43:00,
2013-04-15 00:48:00,66.3,51.5,29.63,SSE,167,5.0,6.0,59,0.00,,,0.00,Wunderground v.1.15,2013-04-15 05:48:00,
2013-04-15 00:53:00,66.2,51.4,29.63,South,173,5.0,6.0,59,0.00,,,0.00,Wunderground v.1.15,2013-04-15 05:53:00,
2013-04-15 01:00:00,66.1,51.4,29.63,South,173,5.0,5.0,59,0.00,,,0.00,Wunderground v.1.15,2013-04-15 06:00:00,
2013-04-15 01:05:00,65.9,51.6,29.63,South,173,5.0,6.0,60,0.00,,,0.00,Wunderground v.1.15,2013-04-15 06:05:00,
2013-04-15 01:11:00,65.9,51.6,29.63,SSE,157,5.0,5.0,60,0.00,,,0.00,Wunderground v.1.15,2013-04-15 06:11:00,
2013-04-15 01:16:00,65.8,51.5,29.63,SSE,165,5.0,7.0,60,0.00,,,0.00,Wunderground v.1.15,2013-04-15 06:16:00,
2013-04-15 01:21:00,65.6,51.8,29.63,ESE,123,3.0,5.0,61,0.00,,,0.00,Wunderground v.1.15,2013-04-15 06:21:00,
2013-04-15 01:27:00,65.6,51.8,29.63,South,181,2.0,5.0,61,0.00,,,0.00,Wunderground v.1.15,2013-04-15 06:27:00,
2013-04-15 01:33:00,65.6,51.8,29.62,SE,144,4.0,5.0,61,0.00,,,0.00,Wunderground v.1.15,2013-04-15 06:33:00,
2013-04-15 01:38:00,65.6,51.8,29.62,SSE,149,4.0,7.0,61,0.00,,,0.00,Wunderground v.1.15,2013-04-15 06:38:00,
2013-04-15 01:43:00,65.5,51.7,29.62,SSE,152,4.0,6.0,61,0.00,,,0.00,Wunderground v.1.15,2013-04-15 06:43:00,
2013-04-15 01:49:00,65.4,52.0,29.62,South,183,5.0,7.0,62,0.00,,,0.00,Wunderground v.1.15,2013-04-15 06:49:00,
2013-04-15 01:54:00,65.3,51.9,29.62,South,175,6.0,7.0,62,0.00,,,0.00,Wunderground v.1.15,2013-04-15 06:54:00,
2013-04-15 01:59:00,65.2,51.8,29.63,SSE,162,5.0,5.0,62,0.00,,,0.00,Wunderground v.1.15,2013-04-15 06:59:00,
2013-04-15 02:05:00,65.0,51.7,29.64,SW,222,4.0,5.0,62,0.00,,,0.00,Wunderground v.1.15,2013-04-15 07:05:00,
2013-04-15 02:41:00,62.9,51.0,29.64,NNW,333,0.0,0.0,65,0.00,,,0.00,Wunderground v.1.15,2013-04-15 07:41:00,
2013-04-15 02:42:00,63.0,51.0,29.64,NNW,333,0.0,0.0,65,0.00,,,0.00,Wunderground v.1.15,2013-04-15 07:42:00,
2013-04-15 02:43:00,63.0,51.0,29.63,NNW,333,0.0,0.0,65,0.00,,,0.00,Wunderground v.1.15,2013-04-15 07:43:00,
2013-04-15 02:44:00,63.0,51.0,29.63,NNW,333,0.0,0.0,65,0.00,,,0.00,Wunderground v.1.15,2013-04-15 07:44:00,
2013-04-15 02:48:00,63.0,51.0,29.63,NNW,333,0.0,0.0,65,0.00,,,0.00,Wunderground v.1.15,2013-04-15 07:48:00,
2013-04-15 02:49:00,63.0,51.5,29.63,NNW,333,0.0,0.0,66,0.00,,,0.00,Wunderground v.1.15,2013-04-15 07:49:00,
2013-04-15 02:51:00,63.1,51.6,29.64,NNW,333,0.0,0.0,66,0.00,,,0.00,Wunderground v.1.15,2013-04-15 07:51:00,
2013-04-15 02:57:00,63.2,51.2,29.64,NNW,333,0.0,0.0,65,0.00,,,0.00,Wunderground v.1.15,2013-04-15 07:57:00,
2013-04-15 03:02:00,63.1,51.1,29.64,NNW,333,0.0,0.0,65,0.00,,,0.00,Wunderground v.1.15,2013-04-15 08:02:00,
2013-04-15 03:08:00,63.0,51.5,29.64,NNW,333,0.0,0.0,66,0.00,,,0.00,Wunderground v.1.15,2013-04-15 08:08:00,
2013-04-15 03:13:00,62.8,51.3,29.64,NNW,333,0.0,0.0,66,0.00,,,0.00,Wunderground v.1.15,2013-04-15 08:13:00,
2013-04-15 03:18:00,62.5,51.0,29.64,NNW,333,0.0,0.0,66,0.00,,,0.00,Wunderground v.1.15,2013-04-15 08:18:00,
2013-04-15 03:24:00,62.1,51.0,29.64,NNW,333,0.0,0.0,67,0.00,,,0.00,Wunderground v.1.15,2013-04-15 08:24:00,
2013-04-15 03:30:00,62.0,50.9,29.65,NNW,333,0.0,0.0,67,0.00,,,0.00,Wunderground v.1.15,2013-04-15 08:30:00,
2013-04-15 03:35:00,61.8,50.7,29.65,NNW,333,0.0,0.0,67,0.00,,,0.00,Wunderground v.1.15,2013-04-15 08:35:00,
2013-04-15 03:40:00,61.7,51.0,29.65,NNW,333,0.0,0.0,68,0.00,,,0.00,Wunderground v.1.15,2013-04-15 08:40:00,
2013-04-15 03:41:00,61.7,51.0,29.65,NNW,333,0.0,0.0,68,0.00,,,0.00,Wunderground v.1.15,2013-04-15 08:41:00,
2013-04-15 03:43:00,61.7,51.0,29.65,NNW,333,0.0,0.0,68,0.00,,,0.00,Wunderground v.1.15,2013-04-15 08:43:00,
2013-04-15 03:45:00,61.6,50.9,29.65,NNW,333,0.0,0.0,68,0.00,,,0.00,Wunderground v.1.15,2013-04-15 08:45:00,
2013-04-15 03:51:00,61.2,50.9,29.65,NNW,333,0.0,0.0,69,0.00,,,0.00,Wunderground v.1.15,2013-04-15 08:51:00,
2013-04-15 03:57:00,60.8,51.0,29.66,NNW,333,0.0,0.0,70,0.00,,,0.00,Wunderground v.1.15,2013-04-15 08:57:00,
2013-04-15 04:03:00,60.8,51.0,29.66,NNW,332,0.0,0.0,70,0.00,,,0.00,Wunderground v.1.15,2013-04-15 09:03:00,
2013-04-15 04:08:00,60.5,51.0,29.66,NNW,332,0.0,0.0,71,0.00,,,0.00,Wunderground v.1.15,2013-04-15 09:08:00,
2013-04-15 04:13:00,60.7,50.9,29.66,NNW,332,0.0,0.0,70,0.00,,,0.00,Wunderground v.1.15,2013-04-15 09:13:00,
2013-04-15 04:19:00,60.9,51.0,29.66,NNW,332,0.0,0.0,70,0.00,,,0.00,Wunderground v.1.15,2013-04-15 09:19:00,
2013-04-15 04:24:00,61.1,51.2,29.66,NNW,332,0.0,0.0,70,0.00,,,0.00,Wunderground v.1.15,2013-04-15 09:24:00,
2013-04-15 04:29:00,61.4,51.1,29.66,NNW,332,0.0,0.0,69,0.00,,,0.00,Wunderground v.1.15,2013-04-15 09:29:00,
2013-04-15 04:34:00,61.9,51.6,29.65,NNW,332,0.0,0.0,69,0.00,,,0.00,Wunderground v.1.15,2013-04-15 09:34:00,
2013-04-15 04:40:00,61.5,50.8,29.66,NNW,332,0.0,1.0,68,0.00,,,0.00,Wunderground v.1.15,2013-04-15 09:40:00,
2013-04-15 04:45:00,60.8,50.6,29.66,NNW,332,1.0,1.0,69,0.00,,,0.00,Wunderground v.1.15,2013-04-15 09:45:00,
2013-04-15 04:50:00,60.0,50.2,29.66,NNW,333,0.0,1.0,70,0.00,,,0.00,Wunderground v.1.15,2013-04-15 09:50:00,
2013-04-15 04:56:00,59.3,50.6,29.66,NE,39,0.0,2.0,73,0.00,,,0.00,Wunderground v.1.15,2013-04-15 09:56:00,
2013-04-15 05:01:00,59.0,51.4,29.66,NNE,31,1.0,1.0,76,0.00,,,0.00,Wunderground v.1.15,2013-04-15 10:01:00,
2013-04-15 05:06:00,58.7,51.9,29.66,NNE,32,0.0,2.0,78,0.00,,,0.00,Wunderground v.1.15,2013-04-15 10:06:00,
2013-04-15 05:12:00,58.7,52.2,29.66,NE,38,1.0,1.0,79,0.00,,,0.00,Wunderground v.1.15,2013-04-15 10:12:00,
2013-04-15 05:17:00,58.6,52.1,29.66,NNE,22,1.0,1.0,79,0.00,,,0.00,Wunderground v.1.15,2013-04-15 10:17:00,
2013-04-15 05:23:00,58.5,52.4,29.66,NNE,30,1.0,1.0,80,0.00,,,0.00,Wunderground v.1.15,2013-04-15 10:23:00,
2013-04-15 05:28:00,58.6,52.4,29.65,NNE,33,1.0,3.0,80,0.00,,,0.00,Wunderground v.1.15,2013-04-15 10:28:00,
2013-04-15 05:33:00,58.6,52.4,29.66,NNE,33,1.0,1.0,80,0.00,,,0.00,Wunderground v.1.15,2013-04-15 10:33:00,
2013-04-15 05:38:00,58.5,52.7,29.66,NNE,33,0.0,1.0,81,0.00,,,0.00,Wunderground v.1.15,2013-04-15 10:38:00,
2013-04-15 05:43:00,58.5,52.7,29.66,NE,34,0.0,2.0,81,0.00,,,0.00,Wunderground v.1.15,2013-04-15 10:43:00,
2013-04-15 05:49:00,58.5,52.7,29.66,NE,34,0.0,2.0,81,0.00,,,0.00,Wunderground v.1.15,2013-04-15 10:49:00,
2013-04-15 05:54:00,58.5,52.7,29.66,NE,34,0.0,2.0,81,0.00,,,0.00,Wunderground v.1.15,2013-04-15 10:54:00,
2013-04-15 06:00:00,58.3,52.5,29.67,ENE,61,2.0,2.0,81,0.00,,,0.00,Wunderground v.1.15,2013-04-15 11:00:00,
2013-04-15 06:05:00,58.2,52.7,29.67,NE,34,2.0,4.0,82,0.00,,,0.00,Wunderground v.1.15,2013-04-15 11:05:00,
2013-04-15 06:11:00,58.0,52.5,29.67,NNE,30,2.0,3.0,82,0.00,,,0.00,Wunderground v.1.15,2013-04-15 11:11:00,
2013-04-15 06:16:00,57.9,52.8,29.67,NE,36,2.0,4.0,83,0.00,,,0.00,Wunderground v.1.15,2013-04-15 11:16:00,
2013-04-15 06:21:00,57.8,52.7,29.67,NNE,27,2.0,4.0,83,0.00,,,0.00,Wunderground v.1.15,2013-04-15 11:21:00,
2013-04-15 06:27:00,57.7,52.9,29.67,NE,41,2.0,4.0,84,0.00,,,0.00,Wunderground v.1.15,2013-04-15 11:27:00,
2013-04-15 06:33:00,57.5,52.7,29.67,NNE,30,1.0,2.0,84,0.00,,,0.00,Wunderground v.1.15,2013-04-15 11:33:00,
2013-04-15 06:38:00,57.5,53.0,29.67,NNE,23,1.0,3.0,85,0.00,,,0.00,Wunderground v.1.15,2013-04-15 11:38:00,
2013-04-15 06:43:00,57.5,53.0,29.68,NNE,26,1.0,1.0,85,0.00,,,0.00,Wunderground v.1.15,2013-04-15 11:43:00,
2013-04-15 06:49:00,57.5,53.3,29.68,NNE,26,1.0,1.0,86,0.00,,,0.00,Wunderground v.1.15,2013-04-15 11:49:00,
2013-04-15 06:55:00,57.6,53.8,29.68,NE,43,1.0,2.0,87,0.00,,,0.00,Wunderground v.1.15,2013-04-15 11:55:00,
2013-04-15 07:02:00,57.7,54.2,29.68,NNE,32,2.0,2.0,88,0.00,,,0.00,Wunderground v.1.15,2013-04-15 12:02:00,
2013-04-15 07:08:00,57.8,54.3,29.68,NNE,22,2.0,4.0,88,0.00,,,0.00,Wunderground v.1.15,2013-04-15 12:08:00,
2013-04-15 07:14:00,57.8,54.6,29.68,NE,34,2.0,2.0,89,0.00,,,0.00,Wunderground v.1.15,2013-04-15 12:14:00,
2013-04-15 07:20:00,57.9,54.7,29.68,NE,45,2.0,3.0,89,0.00,,,0.00,Wunderground v.1.15,2013-04-15 12:20:00,
2013-04-15 07:26:00,58.0,54.8,29.68,NNE,22,3.0,4.0,89,0.00,,,0.00,Wunderground v.1.15,2013-04-15 12:26:00,
2013-04-15 07:31:00,58.0,54.8,29.69,NE,44,3.0,6.0,89,0.00,,,0.00,Wunderground v.1.15,2013-04-15 12:31:00,
2013-04-15 07:36:00,58.1,55.2,29.69,NE,44,2.0,6.0,90,0.00,,,0.00,Wunderground v.1.15,2013-04-15 12:36:00,
2013-04-15 07:42:00,58.1,55.2,29.69,NNE,26,2.0,6.0,90,0.00,,,0.00,Wunderground v.1.15,2013-04-15 12:42:00,
2013-04-15 07:47:00,58.1,55.2,29.69,ENE,58,2.0,6.0,90,0.00,,,0.00,Wunderground v.1.15,2013-04-15 12:47:00,
2013-04-15 07:53:00,58.2,55.3,29.69,NNE,21,3.0,5.0,90,0.00,,,0.00,Wunderground v.1.15,2013-04-15 12:53:00,
2013-04-15 07:58:00,58.2,55.3,29.69,ENE,59,3.0,6.0,90,0.00,,,0.00,Wunderground v.1.15,2013-04-15 12:58:00,
2013-04-15 08:04:00,58.2,55.3,29.69,ENE,71,3.0,4.0,90,0.00,,,0.00,Wunderground v.1.15,2013-04-15 13:04:00,
2013-04-15 08:09:00,58.2,55.3,29.69,NE,44,4.0,9.0,90,0.00,,,0.00,Wunderground v.1.15,2013-04-15 13:09:00,
2013-04-15 08:14:00,58.2,55.3,29.69,NE,35,4.0,7.0,90,0.00,,,0.00,Wunderground v.1.15,2013-04-15 13:14:00,
2013-04-15 08:20:00,58.2,55.3,29.69,ENE,73,4.0,4.0,90,0.00,,,0.00,Wunderground v.1.15,2013-04-15 13:20:00,
2013-04-15 08:26:00,58.3,55.4,29.69,ENE,71,4.0,7.0,90,0.00,,,0.00,Wunderground v.1.15,2013-04-15 13:26:00,
2013-04-15 08:31:00,58.4,55.5,29.69,NE,36,3.0,3.0,90,0.00,,,0.00,Wunderground v.1.15,2013-04-15 13:31:00,
2013-04-15 08:38:00,58.5,55.6,29.69,ENE,63,3.0,4.0,90,0.00,,,0.00,Wunderground v.1.15,2013-04-15 13:38:00,
2013-04-15 08:43:00,58.6,55.7,29.69,ENE,59,3.0,4.0,90,0.00,,,0.00,Wunderground v.1.15,2013-04-15 13:43:00,
2013-04-15 08:48:00,58.6,55.7,29.69,NE,38,2.0,4.0,90,0.00,,,0.00,Wunderground v.1.15,2013-04-15 13:48:00,
2013-04-15 08:53:00,58.8,55.9,29.69,NNE,22,2.0,2.0,90,0.00,,,0.00,Wunderground v.1.15,2013-04-15 13:53:00,
2013-04-15 08:58:00,59.2,56.3,29.69,NE,36,2.0,3.0,90,0.00,,,0.00,Wunderground v.1.15,2013-04-15 13:58:00,
2013-04-15 09:05:00,59.5,56.3,29.69,ENE,62,3.0,4.0,89,0.00,,,0.00,Wunderground v.1.15,2013-04-15 14:05:00,
2013-04-15 09:10:00,59.8,56.6,29.69,ENE,63,3.0,4.0,89,0.00,,,0.00,Wunderground v.1.15,2013-04-15 14:10:00,
2013-04-15 09:16:00,59.9,56.3,29.69,NNE,26,2.0,4.0,88,0.00,,,0.00,Wunderground v.1.15,2013-04-15 14:16:00,
2013-04-15 09:22:00,60.0,56.4,29.69,NE,43,3.0,6.0,88,0.00,,,0.00,Wunderground v.1.15,2013-04-15 14:22:00,
2013-04-15 09:27:00,60.1,56.5,29.68,ENE,59,3.0,6.0,88,0.00,,,0.00,Wunderground v.1.15,2013-04-15 14:27:00,
2013-04-15 09:32:00,60.3,56.7,29.69,NE,43,2.0,2.0,88,0.00,,,0.00,Wunderground v.1.15,2013-04-15 14:32:00,
2013-04-15 09:38:00,60.9,57.0,29.68,NE,49,2.0,3.0,87,0.00,,,0.00,Wunderground v.1.15,2013-04-15 14:38:00,
2013-04-15 09:43:00,61.3,57.1,29.69,NE,49,1.0,1.0,86,0.00,,,0.00,Wunderground v.1.15,2013-04-15 14:43:00,
2013-04-15 09:49:00,62.0,57.4,29.69,NE,49,0.0,1.0,85,0.00,,,0.00,Wunderground v.1.15,2013-04-15 14:49:00,
2013-04-15 09:55:00,62.0,57.4,29.69,NE,49,0.0,0.0,85,0.00,,,0.00,Wunderground v.1.15,2013-04-15 14:55:00,
2013-04-15 10:00:00,62.3,57.7,29.69,NE,49,0.0,0.0,85,0.00,,,0.00,Wunderground v.1.15,2013-04-15 15:00:00,
2013-04-15 10:06:00,62.5,57.3,29.69,ENE,65,0.0,2.0,83,0.00,,,0.00,Wunderground v.1.15,2013-04-15 15:06:00,
2013-04-15 10:11:00,62.7,57.8,29.69,ENE,65,0.0,0.0,84,0.00,,,0.00,Wunderground v.1.15,2013-04-15 15:11:00,
2013-04-15 10:16:00,63.4,58.1,29.69,ENE,61,0.0,3.0,83,0.00,,,0.00,Wunderground v.1.15,2013-04-15 15:16:00,
2013-04-15 10:21:00,63.1,58.2,29.69,ENE,63,1.0,4.0,84,0.00,,,0.00,Wunderground v.1.15,2013-04-15 15:21:00,
2013-04-15 10:27:00,63.6,58.3,29.68,NNE,32,2.0,4.0,83,0.00,,,0.00,Wunderground v.1.15,2013-04-15 15:27:00,
2013-04-15 10:33:00,64.0,58.7,29.68,East,82,2.0,3.0,83,0.00,,,0.00,Wunderground v.1.15,2013-04-15 15:33:00,
2013-04-15 10:39:00,65.1,58.8,29.68,East,82,1.0,3.0,80,0.00,,,0.00,Wunderground v.1.15,2013-04-15 15:39:00,
2013-04-15 10:44:00,65.2,59.2,29.68,East,82,1.0,5.0,81,0.00,,,0.00,Wunderground v.1.15,2013-04-15 15:44:00,
2013-04-15 10:50:00,66.2,60.2,29.68,East,83,1.0,1.0,81,0.00,,,0.00,Wunderground v.1.15,2013-04-15 15:50:00,
2013-04-15 10:55:00,66.5,59.8,29.68,SSE,153,1.0,3.0,79,0.00,,,0.00,Wunderground v.1.15,2013-04-15 15:55:00,
2013-04-15 11:02:00,67.0,59.9,29.68,SSW,207,1.0,6.0,78,0.00,,,0.00,Wunderground v.1.15,2013-04-15 16:02:00,
2013-04-15 11:08:00,67.2,60.1,29.68,SSW,208,2.0,6.0,78,0.00,,,0.00,Wunderground v.1.15,2013-04-15 16:08:00,
2013-04-15 11:14:00,67.7,60.6,29.68,SW,221,3.0,7.0,78,0.00,,,0.00,Wunderground v.1.15,2013-04-15 16:14:00,
2013-04-15 11:19:00,67.8,60.7,29.68,South,184,4.0,7.0,78,0.00,,,0.00,Wunderground v.1.15,2013-04-15 16:19:00,
2013-04-15 11:25:00,68.3,60.8,29.68,SE,138,7.0,10.0,77,0.00,,,0.00,Wunderground v.1.15,2013-04-15 16:25:00,
2013-04-15 11:31:00,68.7,61.2,29.68,SSW,208,8.0,18.0,77,0.00,,,0.00,Wunderground v.1.15,2013-04-15 16:31:00,
2013-04-15 11:37:00,69.1,61.2,29.68,SSE,147,8.0,18.0,76,0.00,,,0.00,Wunderground v.1.15,2013-04-15 16:37:00,
2013-04-15 11:42:00,69.3,61.4,29.68,SSE,164,8.0,9.0,76,0.00,,,0.00,Wunderground v.1.15,2013-04-15 16:42:00,
2013-04-15 11:48:00,69.4,61.5,29.68,South,171,7.0,9.0,76,0.00,,,0.00,Wunderground v.1.15,2013-04-15 16:48:00,
2013-04-15 11:53:00,69.8,61.9,29.68,SSW,198,8.0,11.0,76,0.00,,,0.00,Wunderground v.1.15,2013-04-15 16:53:00,
2013-04-15 11:58:00,70.4,62.1,29.68,South,171,9.0,14.0,75,0.00,,,0.00,Wunderground v.1.15,2013-04-15 16:58:00,
2013-04-15 12:03:00,70.6,61.9,29.68,SSW,213,8.0,10.0,74,0.00,,,0.00,Wunderground v.1.15,2013-04-15 17:03:00,
2013-04-15 12:09:00,70.6,61.5,29.69,SSW,207,10.0,19.0,73,0.00,,,0.00,Wunderground v.1.15,2013-04-15 17:09:00,
2013-04-15 12:15:00,70.7,61.6,29.69,SSE,161,11.0,19.0,73,0.00,,,0.00,Wunderground v.1.15,2013-04-15 17:15:00,
2013-04-15 12:21:00,70.7,61.6,29.69,SSW,193,9.0,13.0,73,0.00,,,0.00,Wunderground v.1.15,2013-04-15 17:21:00,
2013-04-15 12:22:00,70.7,61.6,29.69,SSW,213,9.0,17.0,73,0.00,,,0.00,Wunderground v.1.15,2013-04-15 17:22:00,
2013-04-15 12:26:00,71.1,61.6,29.69,South,180,10.0,17.0,72,0.00,,,0.00,Wunderground v.1.15,2013-04-15 17:26:00,
2013-04-15 12:29:00,71.5,62.0,29.68,SSW,204,9.0,17.0,72,0.00,,,0.00,Wunderground v.1.15,2013-04-15 17:29:00,
2013-04-15 12:30:00,71.7,61.8,29.69,SSE,163,9.0,9.0,71,0.00,,,0.00,Wunderground v.1.15,2013-04-15 17:30:00,
2013-04-15 12:36:00,71.4,61.5,29.69,WSW,242,10.0,14.0,71,0.00,,,0.00,Wunderground v.1.15,2013-04-15 17:36:00,
2013-04-15 12:41:00,72.0,61.7,29.69,WSW,246,9.0,10.0,70,0.00,,,0.00,Wunderground v.1.15,2013-04-15 17:41:00,
2013-04-15 12:47:00,72.0,61.7,29.69,SW,222,8.0,12.0,70,0.00,,,0.00,Wunderground v.1.15,2013-04-15 17:47:00,
2013-04-15 12:53:00,72.0,61.3,29.69,South,188,9.0,16.0,69,0.00,,,0.00,Wunderground v.1.15,2013-04-15 17:53:00,
2013-04-15 12:58:00,72.3,61.6,29.68,SSW,206,9.0,16.0,69,0.00,,,0.00,Wunderground v.1.15,2013-04-15 17:58:00,
2013-04-15 13:03:00,72.9,61.3,29.68,South,170,10.0,18.0,67,0.00,,,0.00,Wunderground v.1.15,2013-04-15 18:03:00,
2013-04-15 13:09:00,73.3,61.7,29.68,SW,216,10.0,18.0,67,0.00,,,0.00,Wunderground v.1.15,2013-04-15 18:09:00,
2013-04-15 13:14:00,73.0,61.4,29.68,SSE,167,9.0,17.0,67,0.00,,,0.00,Wunderground v.1.15,2013-04-15 18:14:00,
2013-04-15 13:21:00,73.2,61.2,29.68,SSW,196,9.0,12.0,66,0.00,,,0.00,Wunderground v.1.15,2013-04-15 18:21:00,
2013-04-15 13:26:00,73.1,61.5,29.68,South,182,11.0,19.0,67,0.00,,,0.00,Wunderground v.1.15,2013-04-15 18:26:00,
2013-04-15 13:30:00,73.0,61.4,29.68,SW,217,11.0,11.0,67,0.00,,,0.00,Wunderground v.1.15,2013-04-15 18:30:00,
2013-04-15 13:31:00,73.0,61.4,29.68,SW,216,11.0,11.0,67,0.00,,,0.00,Wunderground v.1.15,2013-04-15 18:31:00,
2013-04-15 13:36:00,73.5,61.4,29.67,South,189,12.0,12.0,66,0.00,,,0.00,Wunderground v.1.15,2013-04-15 18:36:00,
2013-04-15 13:38:00,73.3,60.8,29.67,ESE,122,13.0,13.0,65,0.00,,,0.00,Wunderground v.1.15,2013-04-15 18:38:00,
2013-04-15 13:39:00,73.1,60.6,29.67,South,191,15.0,15.0,65,0.00,,,0.00,Wunderground v.1.15,2013-04-15 18:39:00,
2013-04-15 13:42:00,73.4,60.9,29.67,South,177,13.0,16.0,65,0.00,,,0.00,Wunderground v.1.15,2013-04-15 18:42:00,
2013-04-15 13:48:00,73.3,60.8,29.67,SSE,167,14.0,17.0,65,0.00,,,0.00,Wunderground v.1.15,2013-04-15 18:48:00,
2013-04-15 13:53:00,73.8,60.9,29.68,SSW,204,13.0,20.0,64,0.00,,,0.00,Wunderground v.1.15,2013-04-15 18:53:00,
2013-04-15 13:58:00,74.1,61.1,29.67,South,188,11.0,20.0,64,0.00,,,0.00,Wunderground v.1.15,2013-04-15 18:58:00,
2013-04-15 14:04:00,74.1,61.1,29.67,SSW,198,9.0,16.0,64,0.00,,,0.00,Wunderground v.1.15,2013-04-15 19:04:00,
2013-04-15 14:09:00,74.7,61.3,29.67,SSW,203,8.0,9.0,63,0.00,,,0.00,Wunderground v.1.15,2013-04-15 19:09:00,
2013-04-15 14:15:00,74.8,61.4,29.67,SSW,206,9.0,15.0,63,0.00,,,0.00,Wunderground v.1.15,2013-04-15 19:15:00,
2013-04-15 14:20:00,75.1,61.2,29.67,South,185,9.0,14.0,62,0.00,,,0.00,Wunderground v.1.15,2013-04-15 19:20:00,
2013-04-15 14:25:00,74.6,61.2,29.67,SSE,161,9.0,14.0,63,0.00,,,0.00,Wunderground v.1.15,2013-04-15 19:25:00,
2013-04-15 14:31:00,74.5,61.1,29.66,West,273,9.0,9.0,63,0.00,,,0.00,Wunderground v.1.15,2013-04-15 19:31:00,
2013-04-15 14:36:00,74.8,61.4,29.66,SW,225,8.0,14.0,63,0.00,,,0.00,Wunderground v.1.15,2013-04-15 19:36:00,
2013-04-15 14:41:00,74.9,61.0,29.66,SSE,168,7.0,17.0,62,0.00,,,0.00,Wunderground v.1.15,2013-04-15 19:41:00,
2013-04-15 14:46:00,74.4,60.5,29.66,South,173,9.0,17.0,62,0.00,,,0.00,Wunderground v.1.15,2013-04-15 19:46:00,
2013-04-15 14:52:00,74.7,61.3,29.66,South,180,10.0,12.0,63,0.00,,,0.00,Wunderground v.1.15,2013-04-15 19:52:00,
2013-04-15 14:58:00,75.8,61.4,29.67,SE,142,10.0,13.0,61,0.00,,,0.00,Wunderground v.1.15,2013-04-15 19:58:00,
2013-04-15 15:01:00,75.4,61.0,29.67,South,184,10.0,10.0,61,0.00,,,0.00,Wunderground v.1.15,2013-04-15 20:01:00,
2013-04-15 15:03:00,75.2,61.3,29.66,South,169,9.0,10.0,62,0.00,,,0.00,Wunderground v.1.15,2013-04-15 20:03:00,
2013-04-15 15:04:00,75.2,61.3,29.66,SSE,150,8.0,10.0,62,0.00,,,0.00,Wunderground v.1.15,2013-04-15 20:04:00,
2013-04-15 15:08:00,75.5,61.1,29.66,SSE,156,8.0,10.0,61,0.00,,,0.00,Wunderground v.1.15,2013-04-15 20:08:00,
2013-04-15 15:13:00,75.2,61.3,29.66,SSW,202,9.0,9.0,62,0.00,,,0.00,Wunderground v.1.15,2013-04-15 20:13:00,
2013-04-15 15:18:00,75.3,61.4,29.66,South,182,8.0,15.0,62,0.00,,,0.00,Wunderground v.1.15,2013-04-15 20:18:00,
2013-04-15 15:20:00,75.3,61.4,29.66,South,182,15.0,15.0,62,0.00,,,0.00,Wunderground v.1.15,2013-04-15 20:20:00,
2013-04-15 15:26:00,75.6,61.2,29.66,South,184,5.0,15.0,61,0.00,,,0.00,Wunderground v.1.15,2013-04-15 20:26:00,
2013-04-15 15:31:00,75.8,60.9,29.66,ESE,123,9.0,13.0,60,0.00,,,0.00,Wunderground v.1.15,2013-04-15 20:31:00,
2013-04-15 15:36:00,75.7,61.3,29.66,SSW,194,12.0,14.0,61,0.00,,,0.00,Wunderground v.1.15,2013-04-15 20:36:00,
2013-04-15 15:42:00,75.8,61.4,29.66,South,190,10.0,15.0,61,0.00,,,0.00,Wunderground v.1.15,2013-04-15 20:42:00,
2013-04-15 15:47:00,76.2,61.8,29.66,SSE,161,8.0,15.0,61,0.00,,,0.00,Wunderground v.1.15,2013-04-15 20:47:00,
2013-04-15 15:52:00,75.9,61.5,29.66,South,184,8.0,9.0,61,0.00,,,0.00,Wunderground v.1.15,2013-04-15 20:52:00,
2013-04-15 15:58:00,76.0,61.6,29.66,South,190,10.0,13.0,61,0.00,,,0.00,Wunderground v.1.15,2013-04-15 20:58:00,
2013-04-15 16:03:00,75.4,61.5,29.66,SW,224,11.0,11.0,62,0.00,,,0.00,Wunderground v.1.15,2013-04-15 21:03:00,
2013-04-15 16:09:00,75.7,61.8,29.66,SSW,209,8.0,11.0,62,0.00,,,0.00,Wunderground v.1.15,2013-04-15 21:09:00,
2013-04-15 16:14:00,75.3,61.4,29.66,WSW,241,8.0,12.0,62,0.00,,,0.00,Wunderground v.1.15,2013-04-15 21:14:00,
2013-04-15 16:20:00,75.1,61.6,29.66,South,187,9.0,12.0,63,0.00,,,0.00,Wunderground v.1.15,2013-04-15 21:20:00,
2013-04-15 16:25:00,75.1,61.6,29.66,South,175,9.0,19.0,63,0.00,,,0.00,Wunderground v.1.15,2013-04-15 21:25:00,
2013-04-15 16:30:00,74.9,61.5,29.66,South,182,9.0,9.0,63,0.00,,,0.00,Wunderground v.1.15,2013-04-15 21:30:00,
2013-04-15 16:36:00,74.9,61.5,29.66,SSW,196,7.0,11.0,63,0.00,,,0.00,Wunderground v.1.15,2013-04-15 21:36:00,
2013-04-15 16:41:00,75.0,61.5,29.66,South,169,8.0,10.0,63,0.00,,,0.00,Wunderground v.1.15,2013-04-15 21:41:00,
2013-04-15 16:46:00,75.0,62.0,29.66,South,191,8.0,14.0,64,0.00,,,0.00,Wunderground v.1.15,2013-04-15 21:46:00,
2013-04-15 16:51:00,75.1,62.1,29.66,SSE,147,8.0,9.0,64,0.00,,,0.00,Wunderground v.1.15,2013-04-15 21:51:00,
2013-04-15 16:57:00,75.2,62.2,29.66,South,182,7.0,12.0,64,0.00,,,0.00,Wunderground v.1.15,2013-04-15 21:57:00,
2013-04-15 17:03:00,75.5,62.0,29.66,ESE,103,7.0,9.0,63,0.00,,,0.00,Wunderground v.1.15,2013-04-15 22:03:00,
2013-04-15 17:08:00,76.0,62.0,29.65,SE,132,7.0,10.0,62,0.00,,,0.00,Wunderground v.1.15,2013-04-15 22:08:00,
2013-04-15 17:14:00,76.6,62.1,29.65,SE,141,6.0,7.0,61,0.00,,,0.00,Wunderground v.1.15,2013-04-15 22:14:00,
2013-04-15 17:20:00,76.7,62.2,29.65,SE,142,6.0,6.0,61,0.00,,,0.00,Wunderground v.1.15,2013-04-15 22:20:00,
2013-04-15 17:25:00,77.4,62.4,29.65,SSW,197,7.0,9.0,60,0.00,,,0.00,Wunderground v.1.15,2013-04-15 22:25:00,
2013-04-15 17:30:00,77.1,62.1,29.65,WSW,257,7.0,7.0,60,0.00,,,0.00,Wunderground v.1.15,2013-04-15 22:30:00,
2013-04-15 17:35:00,77.5,62.0,29.65,SSW,192,7.0,10.0,59,0.00,,,0.00,Wunderground v.1.15,2013-04-15 22:35:00,
2013-04-15 17:40:00,76.9,62.0,29.65,South,187,9.0,13.0,60,0.00,,,0.00,Wunderground v.1.15,2013-04-15 22:40:00,
2013-04-15 17:46:00,77.2,61.8,29.65,SSE,159,9.0,13.0,59,0.00,,,0.00,Wunderground v.1.15,2013-04-15 22:46:00,
2013-04-15 17:51:00,77.7,62.2,29.65,SSW,194,7.0,7.0,59,0.00,,,0.00,Wunderground v.1.15,2013-04-15 22:51:00,
2013-04-15 17:57:00,77.6,62.1,29.65,WSW,241,6.0,9.0,59,0.00,,,0.00,Wunderground v.1.15,2013-04-15 22:57:00,
2013-04-15 18:02:00,77.5,62.0,29.65,SSE,168,5.0,7.0,59,0.00,,,0.00,Wunderground v.1.15,2013-04-15 23:02:00,
2013-04-15 18:08:00,76.5,62.0,29.65,SSW,200,7.0,9.0,61,0.00,,,0.00,Wunderground v.1.15,2013-04-15 23:08:00,
2013-04-15 18:13:00,76.7,62.2,29.65,SSW,212,7.0,8.0,61,0.00,,,0.00,Wunderground v.1.15,2013-04-15 23:13:00,
2013-04-15 18:18:00,76.9,62.4,29.65,SSW,211,5.0,8.0,61,0.00,,,0.00,Wunderground v.1.15,2013-04-15 23:18:00,
2013-04-15 18:23:00,76.7,62.2,29.65,South,171,4.0,6.0,61,0.00,,,0.00,Wunderground v.1.15,2013-04-15 23:23:00,
2013-04-15 18:28:00,76.7,62.2,29.65,South,171,5.0,9.0,61,0.00,,,0.00,Wunderground v.1.15,2013-04-15 23:28:00,
2013-04-15 18:34:00,76.6,62.1,29.65,SSE,148,7.0,11.0,61,0.00,,,0.00,Wunderground v.1.15,2013-04-15 23:34:00,
2013-04-15 18:39:00,76.5,62.0,29.65,South,188,7.0,7.0,61,0.00,,,0.00,Wunderground v.1.15,2013-04-15 23:39:00,
2013-04-15 18:45:00,76.5,62.0,29.65,SSE,160,6.0,8.0,61,0.00,,,0.00,Wunderground v.1.15,2013-04-15 23:45:00,
2013-04-15 18:50:00,76.6,62.1,29.65,SE,144,5.0,5.0,61,0.00,,,0.00,Wunderground v.1.15,2013-04-15 23:50:00,
2013-04-15 18:56:00,76.6,62.1,29.65,South,173,4.0,7.0,61,0.00,,,0.00,Wunderground v.1.15,2013-04-15 23:56:00,
2013-04-15 19:01:00,76.7,62.2,29.66,SSE,151,5.0,9.0,61,0.00,,,0.00,Wunderground v.1.15,2013-04-16 00:01:00,
2013-04-15 19:07:00,76.7,61.8,29.66,SSE,166,6.0,9.0,60,0.00,,,0.00,Wunderground v.1.15,2013-04-16 00:07:00,
2013-04-15 19:12:00,76.8,61.9,29.66,SSE,159,7.0,10.0,60,0.00,,,0.00,Wunderground v.1.15,2013-04-16 00:12:00,
2013-04-15 19:17:00,76.7,61.8,29.66,SE,138,7.0,10.0,60,0.00,,,0.00,Wunderground v.1.15,2013-04-16 00:17:00,
2013-04-15 19:23:00,76.6,61.7,29.66,SE,143,6.0,7.0,60,0.00,,,0.00,Wunderground v.1.15,2013-04-16 00:23:00,
2013-04-15 19:28:00,76.4,62.0,29.66,SE,126,6.0,8.0,61,0.00,,,0.00,Wunderground v.1.15,2013-04-16 00:28:00,
2013-04-15 19:34:00,76.0,62.0,29.67,SSE,159,6.0,12.0,62,0.00,,,0.00,Wunderground v.1.15,2013-04-16 00:34:00,
2013-04-15 19:40:00,75.5,62.0,29.67,South,189,7.0,7.0,63,0.00,,,0.00,Wunderground v.1.15,2013-04-16 00:40:00,
2013-04-15 19:45:00,75.3,61.8,29.67,South,178,7.0,11.0,63,0.00,,,0.00,Wunderground v.1.15,2013-04-16 00:45:00,
2013-04-15 19:50:00,75.0,62.0,29.68,SE,134,7.0,7.0,64,0.00,,,0.00,Wunderground v.1.15,2013-04-16 00:50:00,
2013-04-15 19:55:00,74.8,61.8,29.68,SE,136,6.0,9.0,64,0.00,,,0.00,Wunderground v.1.15,2013-04-16 00:55:00,
2013-04-15 20:01:00,74.5,61.5,29.68,SE,138,6.0,7.0,64,0.00,,,0.00,Wunderground v.1.15,2013-04-16 01:01:00,
2013-04-15 20:06:00,74.3,61.3,29.68,SSW,195,7.0,11.0,64,0.00,,,0.00,Wunderground v.1.15,2013-04-16 01:06:00,
2013-04-15 20:11:00,74.0,61.0,29.68,SE,143,7.0,7.0,64,0.00,,,0.00,Wunderground v.1.15,2013-04-16 01:11:00,
2013-04-15 20:17:00,73.8,61.3,29.68,South,184,6.0,9.0,65,0.00,,,0.00,Wunderground v.1.15,2013-04-16 01:17:00,
2013-04-15 20:23:00,73.7,60.8,29.69,SE,128,8.0,11.0,64,0.00,,,0.00,Wunderground v.1.15,2013-04-16 01:23:00,
2013-04-15 20:28:00,73.4,60.9,29.69,South,173,8.0,11.0,65,0.00,,,0.00,Wunderground v.1.15,2013-04-16 01:28:00,
2013-04-15 20:34:00,73.2,60.7,29.69,SSE,153,8.0,12.0,65,0.00,,,0.00,Wunderground v.1.15,2013-04-16 01:34:00,
2013-04-15 20:39:00,73.0,61.0,29.69,South,182,8.0,12.0,66,0.00,,,0.00,Wunderground v.1.15,2013-04-16 01:39:00,
2013-04-15 20:44:00,72.8,60.8,29.70,SE,139,6.0,9.0,66,0.00,,,0.00,Wunderground v.1.15,2013-04-16 01:44:00,
2013-04-15 20:50:00,72.6,60.6,29.70,SSE,162,6.0,7.0,66,0.00,,,0.00,Wunderground v.1.15,2013-04-16 01:50:00,
2013-04-15 20:55:00,72.5,60.5,29.71,SSW,213,6.0,9.0,66,0.00,,,0.00,Wunderground v.1.15,2013-04-16 01:55:00,
2013-04-15 21:00:00,72.3,60.7,29.71,SSE,153,7.0,10.0,67,0.00,,,0.00,Wunderground v.1.15,2013-04-16 02:00:00,
2013-04-15 21:06:00,72.0,60.9,29.71,SSE,147,7.0,10.0,68,0.00,,,0.00,Wunderground v.1.15,2013-04-16 02:06:00,
2013-04-15 21:11:00,71.7,60.6,29.71,SSE,157,7.0,7.0,68,0.00,,,0.00,Wunderground v.1.15,2013-04-16 02:11:00,
2013-04-15 21:17:00,71.5,60.8,29.72,SE,138,7.0,9.0,69,0.00,,,0.00,Wunderground v.1.15,2013-04-16 02:17:00,
2013-04-15 21:22:00,71.3,60.6,29.72,SSE,157,6.0,10.0,69,0.00,,,0.00,Wunderground v.1.15,2013-04-16 02:22:00,
2013-04-15 21:28:00,71.2,60.9,29.72,SSE,152,6.0,10.0,70,0.00,,,0.00,Wunderground v.1.15,2013-04-16 02:28:00,
2013-04-15 21:33:00,71.1,60.8,29.73,South,176,5.0,8.0,70,0.00,,,0.00,Wunderground v.1.15,2013-04-16 02:33:00,
2013-04-15 21:38:00,71.0,60.7,29.73,SE,128,5.0,8.0,70,0.00,,,0.00,Wunderground v.1.15,2013-04-16 02:38:00,
2013-04-15 21:43:00,70.8,60.9,29.73,SE,140,5.0,14.0,71,0.00,,,0.00,Wunderground v.1.15,2013-04-16 02:43:00,
2013-04-15 21:48:00,70.8,60.9,29.74,SE,132,5.0,14.0,71,0.00,,,0.00,Wunderground v.1.15,2013-04-16 02:48:00,
2013-04-15 21:54:00,70.6,60.7,29.74,South,190,6.0,8.0,71,0.00,,,0.00,Wunderground v.1.15,2013-04-16 02:54:00,
2013-04-15 21:59:00,70.4,60.9,29.75,South,191,5.0,11.0,72,0.00,,,0.00,Wunderground v.1.15,2013-04-16 02:59:00,
2013-04-15 22:05:00,70.3,60.8,29.75,ESE,117,5.0,11.0,72,0.00,,,0.00,Wunderground v.1.15,2013-04-16 03:05:00,
2013-04-15 22:11:00,70.3,60.8,29.75,SSE,164,5.0,6.0,72,0.00,,,0.00,Wunderground v.1.15,2013-04-16 03:11:00,
2013-04-15 22:16:00,70.1,60.7,29.75,SSE,149,5.0,6.0,72,0.00,,,0.00,Wunderground v.1.15,2013-04-16 03:16:00,
2013-04-15 22:22:00,70.1,61.0,29.75,South,191,4.0,6.0,73,0.00,,,0.00,Wunderground v.1.15,2013-04-16 03:22:00,
2013-04-15 22:27:00,70.0,60.9,29.75,SE,133,5.0,7.0,73,0.00,,,0.00,Wunderground v.1.15,2013-04-16 03:27:00,
2013-04-15 22:33:00,69.9,60.8,29.75,North,360,4.0,7.0,73,0.00,,,0.00,Wunderground v.1.15,2013-04-16 03:33:00,
2013-04-15 22:38:00,69.9,60.8,29.75,South,170,5.0,9.0,73,0.00,,,0.00,Wunderground v.1.15,2013-04-16 03:38:00,
2013-04-15 22:43:00,69.8,60.8,29.75,SSE,151,5.0,6.0,73,0.00,,,0.00,Wunderground v.1.15,2013-04-16 03:43:00,
2013-04-15 22:49:00,69.8,61.1,29.75,South,185,5.0,9.0,74,0.00,,,0.00,Wunderground v.1.15,2013-04-16 03:49:00,
2013-04-15 22:54:00,69.7,61.0,29.75,SSW,192,6.0,6.0,74,0.00,,,0.00,Wunderground v.1.15,2013-04-16 03:54:00,
2013-04-15 22:59:00,69.7,61.0,29.75,South,180,5.0,5.0,74,0.00,,,0.00,Wunderground v.1.15,2013-04-16 03:59:00,
2013-04-15 23:01:00,69.7,61.0,29.75,South,179,5.0,5.0,74,0.00,,,0.00,Wunderground v.1.15,2013-04-16 04:01:00,
2013-04-15 23:02:00,69.7,61.0,29.75,South,180,5.0,5.0,74,0.00,,,0.00,Wunderground v.1.15,2013-04-16 04:02:00,
2013-04-15 23:04:00,69.6,60.9,29.76,South,186,4.0,8.0,74,0.00,,,0.00,Wunderground v.1.15,2013-04-16 04:04:00,
2013-04-15 23:05:00,69.6,60.9,29.76,SSE,165,4.0,8.0,74,0.00,,,0.00,Wunderground v.1.15,2013-04-16 04:05:00,
2013-04-15 23:09:00,69.6,60.9,29.76,SSE,164,3.0,8.0,74,0.00,,,0.00,Wunderground v.1.15,2013-04-16 04:09:00,
2013-04-15 23:14:00,69.5,60.8,29.76,SSE,165,2.0,3.0,74,0.00,,,0.00,Wunderground v.1.15,2013-04-16 04:14:00,
2013-04-15 23:20:00,69.4,60.8,29.76,SSE,161,0.0,0.0,74,0.00,,,0.00,Wunderground v.1.15,2013-04-16 04:20:00,
2013-04-15 23:25:00,69.3,61.0,29.76,South,183,0.0,0.0,75,0.00,,,0.00,Wunderground v.1.15,2013-04-16 04:25:00,
2013-04-15 23:30:00,69.2,60.9,29.76,South,183,0.0,0.0,75,0.00,,,0.00,Wunderground v.1.15,2013-04-16 04:30:00,
2013-04-15 23:36:00,69.1,60.8,29.76,South,183,0.0,0.0,75,0.00,,,0.00,Wunderground v.1.15,2013-04-16 04:36:00,
2013-04-15 23:41:00,69.0,60.7,29.76,South,183,0.0,0.0,75,0.00,,,0.00,Wunderground v.1.15,2013-04-16 04:41:00,
2013-04-15 23:46:00,69.1,61.2,29.76,South,182,0.0,2.0,76,0.00,,,0.00,Wunderground v.1.15,2013-04-16 04:46:00,
2013-04-15 23:51:00,69.2,60.9,29.75,South,170,1.0,1.0,75,0.00,,,0.00,Wunderground v.1.15,2013-04-16 04:51:00,
2013-04-15 23:57:00,69.2,60.9,29.75,South,171,0.0,1.0,75,0.00,,,0.00,Wunderground v.1.15,2013-04-16 04:57:00,